Torna al catalogo

USA 40 R/B DEB

AttivoHEO
NORAD 44523·DEBRIS·🇺🇸 United States

Lanciato Aug 8, 1989 da Cape Canaveral Space Force Station

Loading…

Prossimi Passaggi (prossime 24 ore)

TLE

AggiornatoSource: Space-Track

Epoca: Sep 12, 2026, 22:14 UTC

1 44523U 89061BW  26255.92692618  .00003539  00000-0  36234-2 0  9995
2 44523  57.0036  90.8984 3079593 147.4184 236.1013  8.67217352 65226

Traccia USA 40 R/B DEB in tempo reale con AllMySat

Download on the App Store